UAE883 RPMD-RPMD

Flight info

Callsign UAE883
Flight time 0h 5m
Altitude 2000
Route VFR
Aircraft B77W/H-V/N

Departure

Time 2026-04-28 17:36
Airport Francisco Bangoy International Airport (RPMD)

Arrival

Time 2026-04-28 17:41
Airport Francisco Bangoy International Airport (RPMD)
Time Latitude Longitude Altitude Speed Heading
2026-04-28 17:28 7.12835 125.64433 109 ft 0 kts 319°
2026-04-28 17:30 7.12837 125.64431 109 ft 2 kts 314°
2026-04-28 17:30 7.12786 125.64414 109 ft 10 kts 97°
2026-04-28 17:30 7.12723 125.64454 109 ft 13 kts 181°
2026-04-28 17:31 7.12663 125.64476 109 ft 9 kts 127°
2026-04-28 17:31 7.12626 125.64503 109 ft 0 kts 129°
2026-04-28 17:34 7.12619 125.64510 109 ft 5 kts 129°
2026-04-28 17:34 7.12589 125.64544 109 ft 10 kts 142°
2026-04-28 17:35 7.12566 125.64571 109 ft 3 kts 94°
2026-04-28 17:35 7.12576 125.64608 109 ft 0 kts 45°
2026-04-28 17:35 7.12605 125.64641 109 ft 22 kts 50°
2026-04-28 17:35 7.12926 125.65013 110 ft 117 kts 49°
2026-04-28 17:36 7.13561 125.65723 645 ft 133 kts 48°
2026-04-28 17:36 7.13674 125.66475 935 ft 127 kts 133°
2026-04-28 17:36 7.12756 125.66644 1322 ft 162 kts 211°
2026-04-28 17:36 7.11942 125.65916 2015 ft 136 kts 225°
2026-04-28 17:37 7.11257 125.65253 1728 ft 147 kts 220°
2026-04-28 17:37 7.10390 125.64452 1297 ft 199 kts 224°
2026-04-28 17:37 7.09466 125.63374 822 ft 191 kts 258°
2026-04-28 17:37 7.10039 125.62426 774 ft 207 kts
2026-04-28 17:38 7.11313 125.63148 279 ft 215 kts 48°
2026-04-28 17:38 7.12244 125.64211 194 ft 180 kts 50°
2026-04-28 17:38 7.12974 125.65094 259 ft 152 kts 48°
2026-04-28 17:38 7.13496 125.65685 917 ft 62 kts 47°
2026-04-28 17:39 7.14013 125.66264 667 ft 149 kts 59°
2026-04-28 17:39 7.13722 125.67056 1320 ft 151 kts 169°
2026-04-28 17:39 7.12091 125.66051 1238 ft 125 kts 219°
2026-04-28 17:40 7.08612 125.62148 1238 ft 125 kts 219°
2026-04-28 17:40 7.09222 125.60804 939 ft 124 kts 49°
2026-04-28 17:40 7.09814 125.61461 629 ft 129 kts 45°
2026-04-28 17:40 7.10430 125.62112 466 ft 127 kts 50°
2026-04-28 17:41 7.11016 125.62786 294 ft 127 kts 49°
2026-04-28 17:41 7.11596 125.63464 147 ft 125 kts 49°
2026-04-28 17:41 7.12132 125.64092 109 ft 106 kts 49°
2026-04-28 17:41 7.12375 125.64371 109 ft 17 kts 53°